Location: Kaarina
(60.4167°N, 22.4167°E)
Time: 18:21:25
(UTC+03:00)

Cosmos 1833 Rocket - Pass Details

Date: 24 August 2019
Orbit: 834 x 839 km, 71.0° (Epoch: 18 September)

Event Time Altitude Azimuth Distance (km) Brightness Sun altitude
Rises 22:38:48 0° 196° (SSW) 3,383 5.5 -10.7°
Reaches altitude 10° 22:41:18 10° 191° (SSW) 2,452 4.8 -10.9°
Maximum altitude 22:46:42 50° 118° (ESE) 1,061 2.9 -11.4°
Drops below altitude 10° 22:52:08 10° 44° (NE) 2,464 5.2 -11.8°
Sets 22:54:38 0° 40° (NE) 3,401 6.0 -12.0°
